Time,TemperatureF,DewpointF,PressureIn,WindDirection,WindDirectionDegrees,WindSpeedMPH,WindSpeedGustMPH,Humidity,HourlyPrecipIn,Conditions,Clouds,dailyrainin,SoftwareType,DateUTC
2013-08-01 00:01:00,61.0,57.0,30.15,SSW,202,6.0,6.0,88,0.00,,,0.00,Rainwise IP-100,2013-08-01 04:01:00,
2013-08-01 00:06:00,61.0,57.0,30.15,SW,225,4.0,7.0,89,0.00,,,0.00,Rainwise IP-100,2013-08-01 04:06:00,
2013-08-01 00:11:00,61.0,58.0,30.15,SW,225,4.0,6.0,90,0.00,,,0.00,Rainwise IP-100,2013-08-01 04:11:00,
2013-08-01 00:16:00,62.0,57.0,30.15,SSW,202,5.0,7.0,86,0.00,,,0.00,Rainwise IP-100,2013-08-01 04:16:00,
2013-08-01 00:21:00,62.0,57.0,30.14,SW,225,5.0,9.0,85,0.00,,,0.00,Rainwise IP-100,2013-08-01 04:21:00,
2013-08-01 00:26:00,62.0,57.0,30.14,SSW,202,6.0,9.0,85,0.00,,,0.00,Rainwise IP-100,2013-08-01 04:26:00,
2013-08-01 00:31:00,62.0,57.0,30.14,SSW,202,8.0,9.0,86,0.00,,,0.00,Rainwise IP-100,2013-08-01 04:31:00,
2013-08-01 00:36:00,62.0,57.0,30.14,South,180,6.0,9.0,86,0.00,,,0.00,Rainwise IP-100,2013-08-01 04:36:00,
2013-08-01 00:41:00,62.0,57.0,30.14,SSW,202,7.0,8.0,84,0.00,,,0.00,Rainwise IP-100,2013-08-01 04:41:00,
2013-08-01 00:46:00,63.0,57.0,30.14,South,180,7.0,7.0,82,0.00,,,0.00,Rainwise IP-100,2013-08-01 04:46:00,
2013-08-01 00:51:00,63.0,57.0,30.14,South,180,6.0,9.0,82,0.00,,,0.00,Rainwise IP-100,2013-08-01 04:51:00,
2013-08-01 00:56:00,63.0,57.0,30.14,South,180,7.0,0.0,83,0.00,,,0.00,Rainwise IP-100,2013-08-01 04:56:00,
2013-08-01 01:01:00,63.0,57.0,30.14,South,180,6.0,9.0,83,0.00,,,0.00,Rainwise IP-100,2013-08-01 05:01:00,
2013-08-01 01:06:00,63.0,57.0,30.14,SSW,202,7.0,8.0,81,0.00,,,0.00,Rainwise IP-100,2013-08-01 05:06:00,
2013-08-01 01:11:00,63.0,57.0,30.13,SW,225,3.0,8.0,81,0.00,,,0.00,Rainwise IP-100,2013-08-01 05:11:00,
2013-08-01 01:16:00,63.0,58.0,30.13,South,180,6.0,6.0,84,0.00,,,0.00,Rainwise IP-100,2013-08-01 05:16:00,
2013-08-01 01:21:00,62.0,57.0,30.14,South,180,7.0,9.0,84,0.00,,,0.00,Rainwise IP-100,2013-08-01 05:21:00,
2013-08-01 01:26:00,62.0,57.0,30.14,South,180,6.0,9.0,86,0.00,,,0.00,Rainwise IP-100,2013-08-01 05:26:00,
2013-08-01 01:31:00,62.0,57.0,30.13,South,180,6.0,9.0,86,0.00,,,0.00,Rainwise IP-100,2013-08-01 05:31:00,
2013-08-01 01:36:00,62.0,57.0,30.13,SW,225,4.0,8.0,85,0.00,,,0.00,Rainwise IP-100,2013-08-01 05:36:00,
2013-08-01 01:41:00,62.0,57.0,30.13,South,180,7.0,7.0,86,0.00,,,0.00,Rainwise IP-100,2013-08-01 05:41:00,
2013-08-01 01:46:00,61.0,57.0,30.13,South,180,7.0,8.0,87,0.00,,,0.00,Rainwise IP-100,2013-08-01 05:46:00,
2013-08-01 01:51:00,61.0,57.0,30.14,South,180,9.0,9.0,87,0.00,,,0.00,Rainwise IP-100,2013-08-01 05:51:00,
2013-08-01 01:56:00,61.0,57.0,30.14,SSE,157,6.0,0.0,87,0.00,,,0.00,Rainwise IP-100,2013-08-01 05:56:00,
2013-08-01 02:01:00,62.0,57.0,30.13,South,180,6.0,9.0,86,0.00,,,0.00,Rainwise IP-100,2013-08-01 06:01:00,
2013-08-01 02:06:00,62.0,57.0,30.13,South,180,7.0,0.0,86,0.00,,,0.00,Rainwise IP-100,2013-08-01 06:06:00,
2013-08-01 02:11:00,62.0,57.0,30.13,SSE,157,9.0,9.0,86,0.00,,,0.00,Rainwise IP-100,2013-08-01 06:11:00,
2013-08-01 02:16:00,62.0,58.0,30.13,SSW,202,9.0,0.0,87,0.00,,,0.00,Rainwise IP-100,2013-08-01 06:16:00,
2013-08-01 02:21:00,62.0,57.0,30.12,SSE,157,9.0,9.0,86,0.00,,,0.00,Rainwise IP-100,2013-08-01 06:21:00,
2013-08-01 02:26:00,62.0,57.0,30.12,South,180,0.0,1.0,85,0.00,,,0.00,Rainwise IP-100,2013-08-01 06:26:00,
2013-08-01 02:31:00,62.0,57.0,30.12,South,180,7.0,7.0,85,0.00,,,0.00,Rainwise IP-100,2013-08-01 06:31:00,
2013-08-01 02:36:00,62.0,57.0,30.12,South,180,6.0,0.0,85,0.00,,,0.00,Rainwise IP-100,2013-08-01 06:36:00,
2013-08-01 02:41:00,62.0,57.0,30.12,South,180,6.0,9.0,86,0.00,,,0.00,Rainwise IP-100,2013-08-01 06:41:00,
2013-08-01 02:46:00,62.0,58.0,30.12,South,180,7.0,0.0,87,0.00,,,0.00,Rainwise IP-100,2013-08-01 06:46:00,
2013-08-01 02:51:00,61.0,57.0,30.12,SSE,157,7.0,9.0,87,0.00,,,0.00,Rainwise IP-100,2013-08-01 06:51:00,
2013-08-01 02:56:00,61.0,57.0,30.12,SSW,202,7.0,8.0,88,0.00,,,0.00,Rainwise IP-100,2013-08-01 06:56:00,
2013-08-01 03:01:00,61.0,57.0,30.13,SSW,202,8.0,8.0,88,0.00,,,0.00,Rainwise IP-100,2013-08-01 07:01:00,
2013-08-01 03:06:00,61.0,57.0,30.13,South,180,6.0,8.0,89,0.00,,,0.00,Rainwise IP-100,2013-08-01 07:06:00,
2013-08-01 03:11:00,61.0,58.0,30.12,South,180,5.0,8.0,90,0.00,,,0.00,Rainwise IP-100,2013-08-01 07:11:00,
2013-08-01 03:16:00,60.0,57.0,30.12,SSW,202,3.0,9.0,91,0.00,,,0.00,Rainwise IP-100,2013-08-01 07:16:00,
2013-08-01 03:21:00,60.0,57.0,30.12,WSW,247,3.0,6.0,92,0.00,,,0.00,Rainwise IP-100,2013-08-01 07:21:00,
2013-08-01 03:26:00,60.0,57.0,30.12,SSW,202,3.0,6.0,91,0.00,,,0.00,Rainwise IP-100,2013-08-01 07:26:00,
2013-08-01 03:31:00,60.0,57.0,30.12,SSW,202,3.0,6.0,93,0.00,,,0.00,Rainwise IP-100,2013-08-01 07:31:00,
2013-08-01 03:36:00,60.0,57.0,30.12,SSE,157,6.0,8.0,93,0.00,,,0.00,Rainwise IP-100,2013-08-01 07:36:00,
2013-08-01 03:41:00,60.0,58.0,30.11,SSE,157,7.0,9.0,94,0.00,,,0.00,Rainwise IP-100,2013-08-01 07:41:00,
2013-08-01 03:46:00,60.0,57.0,30.11,SW,225,4.0,7.0,93,0.00,,,0.00,Rainwise IP-100,2013-08-01 07:46:00,
2013-08-01 03:51:00,59.0,57.0,30.11,SW,225,0.0,6.0,94,0.00,,,0.00,Rainwise IP-100,2013-08-01 07:51:00,
2013-08-01 03:56:00,59.0,58.0,30.11,SW,225,0.0,3.0,97,0.00,,,0.00,Rainwise IP-100,2013-08-01 07:56:00,
2013-08-01 04:01:00,58.0,57.0,30.12,SW,225,0.0,2.0,96,0.00,,,0.00,Rainwise IP-100,2013-08-01 08:01:00,
2013-08-01 04:06:00,57.0,56.0,30.12,ESE,112,2.0,4.0,98,0.00,,,0.00,Rainwise IP-100,2013-08-01 08:06:00,
2013-08-01 04:11:00,56.0,55.0,30.12,NNW,337,4.0,4.0,97,0.00,,,0.00,Rainwise IP-100,2013-08-01 08:11:00,
2013-08-01 04:16:00,56.0,55.0,30.12,NNW,337,0.0,5.0,97,0.00,,,0.00,Rainwise IP-100,2013-08-01 08:16:00,
2013-08-01 04:21:00,56.0,55.0,30.12,NNW,337,0.0,0.0,97,0.00,,,0.00,Rainwise IP-100,2013-08-01 08:21:00,
2013-08-01 04:26:00,55.0,54.0,30.12,NNW,337,2.0,2.0,97,0.00,,,0.00,Rainwise IP-100,2013-08-01 08:26:00,
2013-08-01 04:31:00,55.0,54.0,30.12,NNW,337,0.0,3.0,97,0.00,,,0.00,Rainwise IP-100,2013-08-01 08:31:00,
2013-08-01 04:36:00,56.0,55.0,30.12,ENE,67,3.0,3.0,97,0.00,,,0.00,Rainwise IP-100,2013-08-01 08:36:00,
2013-08-01 04:41:00,56.0,55.0,30.12,ENE,67,0.0,3.0,97,0.00,,,0.00,Rainwise IP-100,2013-08-01 08:41:00,
2013-08-01 04:46:00,56.0,55.0,30.12,ENE,67,0.0,0.0,97,0.00,,,0.00,Rainwise IP-100,2013-08-01 08:46:00,
2013-08-01 04:50:00,56.0,55.0,30.12,ENE,67,0.0,0.0,97,0.00,,,0.00,Rainwise IP-100,2013-08-01 08:50:00,
2013-08-01 04:52:00,55.0,54.0,30.12,ENE,67,0.0,0.0,97,0.00,,,0.00,Rainwise IP-100,2013-08-01 08:52:00,
2013-08-01 04:57:00,55.0,54.0,30.12,NNW,337,1.0,4.0,97,0.00,,,0.00,Rainwise IP-100,2013-08-01 08:57:00,
2013-08-01 05:02:00,55.0,54.0,30.12,NNW,337,0.0,2.0,97,0.00,,,0.00,Rainwise IP-100,2013-08-01 09:02:00,
2013-08-01 05:07:00,55.0,54.0,30.12,NNW,337,0.0,0.0,97,0.00,,,0.00,Rainwise IP-100,2013-08-01 09:07:00,
2013-08-01 05:12:00,55.0,54.0,30.12,NNW,337,0.0,0.0,97,0.00,,,0.00,Rainwise IP-100,2013-08-01 09:12:00,
2013-08-01 05:17:00,56.0,55.0,30.12,NNW,337,0.0,0.0,97,0.00,,,0.00,Rainwise IP-100,2013-08-01 09:17:00,
2013-08-01 05:22:00,56.0,55.0,30.11,NE,45,0.0,1.0,97,0.00,,,0.00,Rainwise IP-100,2013-08-01 09:22:00,
2013-08-01 05:27:00,55.0,54.0,30.11,NE,45,0.0,0.0,97,0.00,,,0.00,Rainwise IP-100,2013-08-01 09:27:00,
2013-08-01 05:32:00,55.0,54.0,30.12,NNW,337,0.0,3.0,97,0.00,,,0.00,Rainwise IP-100,2013-08-01 09:32:00,
2013-08-01 05:37:00,55.0,54.0,30.12,NNW,337,0.0,0.0,97,0.00,,,0.00,Rainwise IP-100,2013-08-01 09:37:00,
2013-08-01 05:42:00,55.0,54.0,30.12,NNW,337,0.0,0.0,97,0.00,,,0.00,Rainwise IP-100,2013-08-01 09:42:00,
2013-08-01 05:47:00,55.0,54.0,30.12,NNW,337,0.0,0.0,97,0.00,,,0.00,Rainwise IP-100,2013-08-01 09:47:00,
2013-08-01 05:52:00,55.0,54.0,30.12,NNW,337,0.0,0.0,97,0.00,,,0.00,Rainwise IP-100,2013-08-01 09:52:00,
2013-08-01 05:57:00,55.0,54.0,30.12,NNW,337,0.0,0.0,97,0.00,,,0.00,Rainwise IP-100,2013-08-01 09:57:00,
2013-08-01 06:02:00,55.0,54.0,30.12,ESE,112,2.0,3.0,97,0.00,,,0.00,Rainwise IP-100,2013-08-01 10:02:00,
2013-08-01 06:07:00,56.0,55.0,30.12,ESE,112,2.0,3.0,97,0.00,,,0.00,Rainwise IP-100,2013-08-01 10:07:00,
2013-08-01 06:12:00,56.0,55.0,30.11,SE,135,1.0,4.0,97,0.00,,,0.00,Rainwise IP-100,2013-08-01 10:12:00,
2013-08-01 06:17:00,55.0,54.0,30.11,SE,135,0.0,1.0,97,0.00,,,0.00,Rainwise IP-100,2013-08-01 10:17:00,
2013-08-01 06:22:00,55.0,54.0,30.11,SE,135,0.0,1.0,97,0.00,,,0.00,Rainwise IP-100,2013-08-01 10:22:00,
2013-08-01 06:27:00,55.0,54.0,30.11,SE,135,0.0,0.0,97,0.00,,,0.00,Rainwise IP-100,2013-08-01 10:27:00,
2013-08-01 06:32:00,55.0,54.0,30.11,SE,135,0.0,0.0,97,0.00,,,0.00,Rainwise IP-100,2013-08-01 10:32:00,
2013-08-01 06:37:00,56.0,55.0,30.11,SE,135,0.0,0.0,97,0.00,,,0.00,Rainwise IP-100,2013-08-01 10:37:00,
2013-08-01 06:42:00,56.0,55.0,30.11,SE,135,0.0,1.0,97,0.00,,,0.00,Rainwise IP-100,2013-08-01 10:42:00,
2013-08-01 06:47:00,57.0,56.0,30.11,SE,135,0.0,0.0,98,0.00,,,0.00,Rainwise IP-100,2013-08-01 10:47:00,
2013-08-01 06:52:00,57.0,56.0,30.11,NNW,337,3.0,4.0,98,0.00,,,0.00,Rainwise IP-100,2013-08-01 10:52:00,
2013-08-01 06:57:00,57.0,56.0,30.11,NNW,337,0.0,3.0,98,0.00,,,0.00,Rainwise IP-100,2013-08-01 10:57:00,
2013-08-01 07:02:00,58.0,57.0,30.11,NW,315,0.0,0.0,98,0.00,,,0.00,Rainwise IP-100,2013-08-01 11:02:00,
2013-08-01 07:07:00,58.0,57.0,30.11,NW,315,0.0,2.0,98,0.00,,,0.00,Rainwise IP-100,2013-08-01 11:07:00,
2013-08-01 07:12:00,58.0,57.0,30.12,NW,315,1.0,3.0,98,0.00,,,0.00,Rainwise IP-100,2013-08-01 11:12:00,
2013-08-01 07:17:00,59.0,58.0,30.12,NW,315,0.0,2.0,98,0.00,,,0.00,Rainwise IP-100,2013-08-01 11:17:00,
2013-08-01 07:22:00,59.0,58.0,30.11,NW,315,2.0,2.0,98,0.00,,,0.00,Rainwise IP-100,2013-08-01 11:22:00,
2013-08-01 07:27:00,59.0,58.0,30.11,NW,315,3.0,3.0,98,0.00,,,0.00,Rainwise IP-100,2013-08-01 11:27:00,
2013-08-01 07:32:00,59.0,58.0,30.12,NW,315,3.0,5.0,98,0.00,,,0.00,Rainwise IP-100,2013-08-01 11:32:00,
2013-08-01 07:37:00,59.0,58.0,30.12,NNW,337,1.0,5.0,98,0.00,,,0.00,Rainwise IP-100,2013-08-01 11:37:00,
2013-08-01 07:42:00,59.0,58.0,30.11,ENE,67,0.0,3.0,98,0.00,,,0.00,Rainwise IP-100,2013-08-01 11:42:00,
2013-08-01 07:47:00,60.0,59.0,30.11,East,90,0.0,5.0,98,0.00,,,0.00,Rainwise IP-100,2013-08-01 11:47:00,
2013-08-01 07:52:00,61.0,60.0,30.11,East,90,0.0,1.0,98,0.00,,,0.00,Rainwise IP-100,2013-08-01 11:52:00,
2013-08-01 07:57:00,62.0,61.0,30.11,East,90,0.0,2.0,98,0.00,,,0.00,Rainwise IP-100,2013-08-01 11:57:00,
2013-08-01 08:02:00,63.0,62.0,30.09,East,90,0.0,4.0,98,0.00,,,0.00,Rainwise IP-100,2013-08-01 12:02:00,
2013-08-01 08:07:00,64.0,62.0,30.09,East,90,1.0,2.0,95,0.00,,,0.00,Rainwise IP-100,2013-08-01 12:07:00,
2013-08-01 08:12:00,65.0,60.0,30.09,East,90,0.0,1.0,86,0.00,,,0.00,Rainwise IP-100,2013-08-01 12:12:00,
2013-08-01 08:17:00,66.0,61.0,30.09,East,90,0.0,2.0,85,0.00,,,0.00,Rainwise IP-100,2013-08-01 12:17:00,
2013-08-01 08:22:00,66.0,61.0,30.08,NNW,337,4.0,4.0,84,0.00,,,0.00,Rainwise IP-100,2013-08-01 12:22:00,
2013-08-01 08:27:00,66.0,60.0,30.08,NE,45,2.0,4.0,83,0.00,,,0.00,Rainwise IP-100,2013-08-01 12:27:00,
2013-08-01 08:32:00,66.0,60.0,30.08,East,90,0.0,4.0,82,0.00,,,0.00,Rainwise IP-100,2013-08-01 12:32:00,
2013-08-01 08:37:00,66.0,60.0,30.08,ESE,112,2.0,3.0,82,0.00,,,0.00,Rainwise IP-100,2013-08-01 12:37:00,
2013-08-01 08:42:00,66.0,60.0,30.08,East,90,2.0,4.0,82,0.00,,,0.00,Rainwise IP-100,2013-08-01 12:42:00,
2013-08-01 08:48:00,67.0,60.0,30.08,East,90,1.0,3.0,78,0.00,,,0.00,Rainwise IP-100,2013-08-01 12:48:00,
2013-08-01 08:53:00,68.0,61.0,30.07,East,90,0.0,3.0,78,0.00,,,0.00,Rainwise IP-100,2013-08-01 12:53:00,
2013-08-01 08:59:00,70.0,61.0,30.07,NNE,22,2.0,4.0,74,0.00,,,0.00,Rainwise IP-100,2013-08-01 12:59:00,
2013-08-01 09:04:00,71.0,61.0,30.05,North,360,2.0,4.0,73,0.00,,,0.00,Rainwise IP-100,2013-08-01 13:04:00,
2013-08-01 09:09:00,71.0,61.0,30.05,North,360,3.0,4.0,73,0.00,,,0.00,Rainwise IP-100,2013-08-01 13:09:00,
2013-08-01 09:14:00,72.0,62.0,30.04,North,360,4.0,5.0,71,0.00,,,0.00,Rainwise IP-100,2013-08-01 13:14:00,
2013-08-01 09:19:00,72.0,63.0,30.04,North,360,0.0,6.0,74,0.00,,,0.00,Rainwise IP-100,2013-08-01 13:19:00,
2013-08-01 09:24:00,74.0,63.0,30.03,North,360,3.0,5.0,68,0.00,,,0.00,Rainwise IP-100,2013-08-01 13:24:00,
2013-08-01 09:29:00,74.0,62.0,30.03,North,360,0.0,5.0,67,0.00,,,0.00,Rainwise IP-100,2013-08-01 13:29:00,
2013-08-01 09:34:00,74.0,62.0,30.02,SSE,157,2.0,4.0,66,0.00,,,0.00,Rainwise IP-100,2013-08-01 13:34:00,
2013-08-01 09:39:00,73.0,60.0,30.02,South,180,7.0,7.0,63,0.00,,,0.00,Rainwise IP-100,2013-08-01 13:39:00,
2013-08-01 09:44:00,73.0,61.0,30.03,SSW,202,6.0,12.0,67,0.00,,,0.00,Rainwise IP-100,2013-08-01 13:44:00,
2013-08-01 09:49:00,72.0,60.0,30.03,South,180,9.0,13.0,66,0.00,,,0.00,Rainwise IP-100,2013-08-01 13:49:00,
2013-08-01 09:54:00,73.0,61.0,30.03,South,180,9.0,12.0,66,0.00,,,0.00,Rainwise IP-100,2013-08-01 13:54:00,
2013-08-01 09:59:00,72.0,60.0,30.03,South,180,3.0,13.0,67,0.00,,,0.00,Rainwise IP-100,2013-08-01 13:59:00,
2013-08-01 10:04:00,71.0,59.0,30.03,SE,135,5.0,16.0,66,0.00,,,0.00,Rainwise IP-100,2013-08-01 14:04:00,
2013-08-01 10:09:00,72.0,61.0,30.03,SW,225,6.0,15.0,69,0.00,,,0.00,Rainwise IP-100,2013-08-01 14:09:00,
2013-08-01 10:14:00,72.0,60.0,30.02,ESE,112,9.0,15.0,67,0.00,,,0.00,Rainwise IP-100,2013-08-01 14:14:00,
2013-08-01 10:19:00,71.0,60.0,30.02,South,180,4.0,19.0,70,0.00,,,0.00,Rainwise IP-100,2013-08-01 14:19:00,
2013-08-01 10:24:00,71.0,61.0,30.02,SSE,157,5.0,12.0,71,0.00,,,0.00,Rainwise IP-100,2013-08-01 14:24:00,
2013-08-01 10:29:00,71.0,60.0,30.02,SW,225,4.0,11.0,69,0.00,,,0.00,Rainwise IP-100,2013-08-01 14:29:00,
2013-08-01 10:34:00,71.0,61.0,30.01,SSW,202,4.0,12.0,71,0.00,,,0.00,Rainwise IP-100,2013-08-01 14:34:00,
2013-08-01 10:39:00,71.0,59.0,30.01,South,180,5.0,14.0,67,0.00,,,0.00,Rainwise IP-100,2013-08-01 14:39:00,
2013-08-01 10:44:00,71.0,60.0,30.02,South,180,10.0,10.0,68,0.00,,,0.00,Rainwise IP-100,2013-08-01 14:44:00,
2013-08-01 10:49:00,71.0,60.0,30.02,South,180,10.0,13.0,68,0.00,,,0.00,Rainwise IP-100,2013-08-01 14:49:00,
2013-08-01 10:54:00,71.0,60.0,30.00,SSW,202,9.0,11.0,70,0.00,,,0.00,Rainwise IP-100,2013-08-01 14:54:00,
2013-08-01 10:59:00,71.0,60.0,30.00,SSW,202,9.0,14.0,68,0.00,,,0.00,Rainwise IP-100,2013-08-01 14:59:00,
2013-08-01 11:04:00,71.0,60.0,30.01,South,180,4.0,13.0,70,0.00,,,0.00,Rainwise IP-100,2013-08-01 15:04:00,
2013-08-01 11:09:00,71.0,60.0,30.01,SSW,202,4.0,12.0,68,0.00,,,0.00,Rainwise IP-100,2013-08-01 15:09:00,
2013-08-01 11:14:00,71.0,60.0,30.00,SW,225,10.0,13.0,69,0.00,,,0.00,Rainwise IP-100,2013-08-01 15:14:00,
2013-08-01 11:19:00,71.0,61.0,30.00,SSW,202,4.0,13.0,71,0.00,,,0.00,Rainwise IP-100,2013-08-01 15:19:00,
2013-08-01 11:24:00,71.0,60.0,30.00,SE,135,5.0,14.0,68,0.00,,,0.00,Rainwise IP-100,2013-08-01 15:24:00,
2013-08-01 11:29:00,72.0,60.0,30.00,South,180,8.0,14.0,67,0.00,,,0.00,Rainwise IP-100,2013-08-01 15:29:00,
2013-08-01 11:34:00,73.0,60.0,29.99,SSW,202,14.0,14.0,64,0.00,,,0.00,Rainwise IP-100,2013-08-01 15:34:00,
2013-08-01 11:39:00,73.0,60.0,29.99,SW,225,6.0,15.0,65,0.00,,,0.00,Rainwise IP-100,2013-08-01 15:39:00,
2013-08-01 11:44:00,73.0,60.0,29.99,SSE,157,10.0,15.0,65,0.00,,,0.00,Rainwise IP-100,2013-08-01 15:44:00,
2013-08-01 11:49:00,73.0,62.0,29.99,SW,225,13.0,15.0,68,0.00,,,0.00,Rainwise IP-100,2013-08-01 15:49:00,
2013-08-01 11:54:00,74.0,63.0,29.98,SSW,202,9.0,17.0,68,0.00,,,0.00,Rainwise IP-100,2013-08-01 15:54:00,
2013-08-01 11:59:00,74.0,61.0,29.98,WNW,292,6.0,14.0,63,0.00,,,0.00,Rainwise IP-100,2013-08-01 15:59:00,
2013-08-01 12:04:00,73.0,60.0,29.97,West,270,7.0,16.0,63,0.00,,,0.00,Rainwise IP-100,2013-08-01 16:04:00,
2013-08-01 12:09:00,73.0,60.0,29.97,SW,225,1.0,13.0,64,0.00,,,0.00,Rainwise IP-100,2013-08-01 16:09:00,
2013-08-01 12:14:00,74.0,61.0,29.96,SSW,202,4.0,15.0,65,0.00,,,0.00,Rainwise IP-100,2013-08-01 16:14:00,
2013-08-01 12:19:00,74.0,61.0,29.96,WSW,247,7.0,10.0,65,0.00,,,0.00,Rainwise IP-100,2013-08-01 16:19:00,
2013-08-01 12:24:00,74.0,62.0,29.96,WSW,247,6.0,15.0,67,0.00,,,0.00,Rainwise IP-100,2013-08-01 16:24:00,
2013-08-01 12:29:00,73.0,60.0,29.96,SSW,202,6.0,16.0,65,0.00,,,0.00,Rainwise IP-100,2013-08-01 16:29:00,
2013-08-01 12:34:00,73.0,60.0,29.96,South,180,8.0,12.0,65,0.00,,,0.00,Rainwise IP-100,2013-08-01 16:34:00,
2013-08-01 12:39:00,73.0,61.0,29.96,SSW,202,9.0,17.0,66,0.00,,,0.00,Rainwise IP-100,2013-08-01 16:39:00,
2013-08-01 12:44:00,73.0,61.0,29.97,South,180,10.0,12.0,67,0.00,,,0.00,Rainwise IP-100,2013-08-01 16:44:00,
2013-08-01 12:49:00,73.0,61.0,29.97,South,180,9.0,15.0,67,0.00,,,0.00,Rainwise IP-100,2013-08-01 16:49:00,
2013-08-01 12:54:00,72.0,60.0,29.96,South,180,6.0,13.0,66,0.00,,,0.00,Rainwise IP-100,2013-08-01 16:54:00,
2013-08-01 12:59:00,72.0,59.0,29.96,SE,135,6.0,12.0,65,0.00,,,0.00,Rainwise IP-100,2013-08-01 16:59:00,
2013-08-01 13:04:00,73.0,60.0,29.96,SSW,202,7.0,15.0,64,0.00,,,0.00,Rainwise IP-100,2013-08-01 17:04:00,
2013-08-01 13:09:00,73.0,60.0,29.96,South,180,12.0,12.0,63,0.00,,,0.00,Rainwise IP-100,2013-08-01 17:09:00,
2013-08-01 13:14:00,73.0,59.0,29.94,South,180,11.0,17.0,61,0.00,,,0.00,Rainwise IP-100,2013-08-01 17:14:00,
2013-08-01 13:19:00,73.0,59.0,29.94,SW,225,5.0,14.0,62,0.00,,,0.00,Rainwise IP-100,2013-08-01 17:19:00,
2013-08-01 13:24:00,73.0,60.0,29.95,SW,225,8.0,14.0,63,0.00,,,0.00,Rainwise IP-100,2013-08-01 17:24:00,
2013-08-01 13:29:00,73.0,60.0,29.95,South,180,8.0,14.0,64,0.00,,,0.00,Rainwise IP-100,2013-08-01 17:29:00,
2013-08-01 13:34:00,72.0,60.0,29.95,SW,225,6.0,13.0,66,0.00,,,0.00,Rainwise IP-100,2013-08-01 17:34:00,
2013-08-01 13:39:00,72.0,60.0,29.95,SSW,202,7.0,8.0,67,0.00,,,0.00,Rainwise IP-100,2013-08-01 17:39:00,
2013-08-01 13:44:00,72.0,60.0,29.95,SSW,202,13.0,13.0,67,0.00,,,0.00,Rainwise IP-100,2013-08-01 17:44:00,
2013-08-01 13:49:00,71.0,59.0,29.95,South,180,7.0,13.0,67,0.00,,,0.00,Rainwise IP-100,2013-08-01 17:49:00,
2013-08-01 13:54:00,71.0,60.0,29.95,SW,225,6.0,10.0,68,0.00,,,0.00,Rainwise IP-100,2013-08-01 17:54:00,
2013-08-01 13:59:00,71.0,60.0,29.95,WSW,247,5.0,12.0,68,0.00,,,0.00,Rainwise IP-100,2013-08-01 17:59:00,
2013-08-01 14:04:00,71.0,60.0,29.95,East,90,5.0,15.0,68,0.00,,,0.00,Rainwise IP-100,2013-08-01 18:04:00,
2013-08-01 14:09:00,71.0,60.0,29.95,SSE,157,7.0,12.0,69,0.00,,,0.00,Rainwise IP-100,2013-08-01 18:09:00,
2013-08-01 14:14:00,71.0,60.0,29.94,SSW,202,7.0,15.0,68,0.00,,,0.00,Rainwise IP-100,2013-08-01 18:14:00,
2013-08-01 14:19:00,71.0,60.0,29.94,South,180,9.0,12.0,68,0.00,,,0.00,Rainwise IP-100,2013-08-01 18:19:00,
2013-08-01 14:24:00,71.0,60.0,29.94,SSW,202,6.0,17.0,70,0.00,,,0.00,Rainwise IP-100,2013-08-01 18:24:00,
2013-08-01 14:29:00,71.0,60.0,29.94,SW,225,4.0,9.0,69,0.00,,,0.00,Rainwise IP-100,2013-08-01 18:29:00,
2013-08-01 14:34:00,71.0,60.0,29.95,SW,225,7.0,10.0,70,0.00,,,0.00,Rainwise IP-100,2013-08-01 18:34:00,
2013-08-01 14:39:00,71.0,60.0,29.95,SW,225,3.0,10.0,70,0.00,,,0.00,Rainwise IP-100,2013-08-01 18:39:00,
2013-08-01 14:44:00,71.0,61.0,29.95,SW,225,2.0,10.0,71,0.00,,,0.00,Rainwise IP-100,2013-08-01 18:44:00,
2013-08-01 14:49:00,71.0,61.0,29.95,SW,225,4.0,12.0,71,0.00,,,0.00,Rainwise IP-100,2013-08-01 18:49:00,
2013-08-01 14:54:00,71.0,61.0,29.94,SW,225,9.0,13.0,71,0.00,,,0.00,Rainwise IP-100,2013-08-01 18:54:00,
2013-08-01 14:59:00,71.0,61.0,29.94,SW,225,7.0,12.0,72,0.00,,,0.00,Rainwise IP-100,2013-08-01 18:59:00,
2013-08-01 15:04:00,71.0,61.0,29.94,SW,225,2.0,14.0,73,0.00,,,0.00,Rainwise IP-100,2013-08-01 19:04:00,
2013-08-01 15:09:00,71.0,61.0,29.94,SW,225,9.0,13.0,72,0.00,,,0.00,Rainwise IP-100,2013-08-01 19:09:00,
2013-08-01 15:14:00,71.0,61.0,29.94,SW,225,7.0,12.0,72,0.00,,,0.00,Rainwise IP-100,2013-08-01 19:14:00,
2013-08-01 15:19:00,70.0,61.0,29.94,SSW,202,6.0,10.0,74,0.00,,,0.00,Rainwise IP-100,2013-08-01 19:19:00,
2013-08-01 15:24:00,70.0,62.0,29.94,South,180,3.0,10.0,77,0.00,,,0.00,Rainwise IP-100,2013-08-01 19:24:00,
2013-08-01 15:29:00,69.0,61.0,29.94,SW,225,2.0,8.0,77,0.00,,,0.00,Rainwise IP-100,2013-08-01 19:29:00,
2013-08-01 15:34:00,69.0,61.0,29.94,SSW,202,6.0,9.0,78,0.00,,,0.00,Rainwise IP-100,2013-08-01 19:34:00,
2013-08-01 15:39:00,69.0,62.0,29.94,SW,225,6.0,14.0,80,0.00,,,0.00,Rainwise IP-100,2013-08-01 19:39:00,
2013-08-01 15:44:00,69.0,62.0,29.94,SW,225,6.0,12.0,80,0.00,,,0.00,Rainwise IP-100,2013-08-01 19:44:00,
2013-08-01 15:49:00,69.0,63.0,29.94,South,180,6.0,12.0,81,0.00,,,0.00,Rainwise IP-100,2013-08-01 19:49:00,
2013-08-01 15:54:00,68.0,62.0,29.94,SSW,202,7.0,13.0,82,0.00,,,0.00,Rainwise IP-100,2013-08-01 19:54:00,
2013-08-01 15:59:00,68.0,63.0,29.94,SSW,202,6.0,11.0,84,0.00,,,0.00,Rainwise IP-100,2013-08-01 19:59:00,
2013-08-01 16:04:00,68.0,64.0,29.95,SW,225,7.0,11.0,88,0.00,,,0.00,Rainwise IP-100,2013-08-01 20:04:00,
2013-08-01 16:09:00,67.0,64.0,29.95,SW,225,6.0,14.0,89,0.00,,,0.00,Rainwise IP-100,2013-08-01 20:09:00,
2013-08-01 16:14:00,67.0,64.0,29.95,SW,225,7.0,14.0,90,0.00,,,0.00,Rainwise IP-100,2013-08-01 20:14:00,
2013-08-01 16:19:00,67.0,64.0,29.95,SW,225,5.0,12.0,91,0.00,,,0.00,Rainwise IP-100,2013-08-01 20:19:00,
2013-08-01 16:24:00,66.0,64.0,29.95,SW,225,7.0,7.0,93,0.00,,,0.00,Rainwise IP-100,2013-08-01 20:24:00,
2013-08-01 16:29:00,66.0,64.0,29.95,West,270,3.0,7.0,94,0.00,,,0.00,Rainwise IP-100,2013-08-01 20:29:00,
2013-08-01 16:34:00,66.0,64.0,29.95,SW,225,0.0,10.0,96,0.06,,,0.01,Rainwise IP-100,2013-08-01 20:34:00,
2013-08-01 16:39:00,66.0,65.0,29.95,SW,225,9.0,9.0,97,0.12,,,0.02,Rainwise IP-100,2013-08-01 20:39:00,
2013-08-01 16:44:00,66.0,65.0,29.95,SSW,202,8.0,10.0,97,0.06,,,0.02,Rainwise IP-100,2013-08-01 20:44:00,
2013-08-01 16:49:00,66.0,65.0,29.95,WSW,247,5.0,10.0,98,0.00,,,0.02,Rainwise IP-100,2013-08-01 20:49:00,
2013-08-01 16:54:00,66.0,65.0,29.95,SW,225,6.0,8.0,98,0.00,,,0.02,Rainwise IP-100,2013-08-01 20:54:00,
2013-08-01 16:59:00,66.0,64.0,29.95,WSW,247,9.0,16.0,94,0.00,,,0.02,Rainwise IP-100,2013-08-01 20:59:00,
2013-08-01 17:04:00,66.0,63.0,29.96,SW,225,14.0,15.0,92,0.00,,,0.02,Rainwise IP-100,2013-08-01 21:04:00,
2013-08-01 17:09:00,66.0,63.0,29.96,SSW,202,10.0,17.0,92,0.00,,,0.02,Rainwise IP-100,2013-08-01 21:09:00,
2013-08-01 17:14:00,66.0,63.0,29.95,SW,225,7.0,14.0,92,0.00,,,0.02,Rainwise IP-100,2013-08-01 21:14:00,
2013-08-01 17:16:00,66.0,63.0,29.95,South,180,12.0,17.0,92,0.00,,,0.02,Rainwise IP-100,2013-08-01 21:16:00,
2013-08-01 17:21:00,66.0,64.0,29.95,SW,225,3.0,15.0,93,0.00,,,0.02,Rainwise IP-100,2013-08-01 21:21:00,
2013-08-01 17:26:00,66.0,64.0,29.95,South,180,14.0,15.0,94,0.00,,,0.02,Rainwise IP-100,2013-08-01 21:26:00,
2013-08-01 17:31:00,65.0,63.0,29.95,WSW,247,7.0,15.0,95,0.00,,,0.02,Rainwise IP-100,2013-08-01 21:31:00,
2013-08-01 17:36:00,65.0,64.0,29.95,South,180,7.0,16.0,97,0.00,,,0.02,Rainwise IP-100,2013-08-01 21:36:00,
2013-08-01 17:41:00,65.0,64.0,29.95,SW,225,4.0,14.0,98,0.00,,,0.02,Rainwise IP-100,2013-08-01 21:41:00,
2013-08-01 17:46:00,65.0,64.0,29.95,SW,225,7.0,12.0,98,0.00,,,0.02,Rainwise IP-100,2013-08-01 21:46:00,
2013-08-01 17:51:00,65.0,64.0,29.95,SW,225,9.0,10.0,99,0.00,,,0.03,Rainwise IP-100,2013-08-01 21:51:00,
2013-08-01 17:56:00,65.0,64.0,29.95,SW,225,7.0,14.0,99,0.06,,,0.03,Rainwise IP-100,2013-08-01 21:56:00,
2013-08-01 18:01:00,65.0,64.0,29.95,SW,225,6.0,14.0,99,0.06,,,0.03,Rainwise IP-100,2013-08-01 22:01:00,
2013-08-01 18:07:00,64.0,63.0,29.95,SW,225,6.0,13.0,98,0.00,,,0.03,Rainwise IP-100,2013-08-01 22:07:00,
2013-08-01 18:12:00,65.0,64.0,29.95,SW,225,6.0,10.0,99,0.00,,,0.03,Rainwise IP-100,2013-08-01 22:12:00,
2013-08-01 18:17:00,64.0,63.0,29.95,SW,225,7.0,9.0,98,0.00,,,0.03,Rainwise IP-100,2013-08-01 22:17:00,
2013-08-01 18:22:00,64.0,63.0,29.96,SW,225,6.0,9.0,98,0.00,,,0.03,Rainwise IP-100,2013-08-01 22:22:00,
2013-08-01 18:27:00,64.0,63.0,29.96,SW,225,8.0,10.0,98,0.00,,,0.03,Rainwise IP-100,2013-08-01 22:27:00,
2013-08-01 18:32:00,64.0,63.0,29.95,SSW,202,7.0,11.0,98,0.00,,,0.03,Rainwise IP-100,2013-08-01 22:32:00,
2013-08-01 18:37:00,64.0,63.0,29.95,SSW,202,7.0,12.0,97,0.00,,,0.03,Rainwise IP-100,2013-08-01 22:37:00,
2013-08-01 18:42:00,65.0,64.0,29.95,SSE,157,7.0,14.0,97,0.00,,,0.03,Rainwise IP-100,2013-08-01 22:42:00,
2013-08-01 18:47:00,65.0,64.0,29.95,SW,225,6.0,16.0,97,0.00,,,0.03,Rainwise IP-100,2013-08-01 22:47:00,
2013-08-01 18:52:00,65.0,64.0,29.95,SSW,202,10.0,12.0,97,0.00,,,0.03,Rainwise IP-100,2013-08-01 22:52:00,
2013-08-01 18:57:00,65.0,64.0,29.95,SW,225,7.0,12.0,97,0.00,,,0.03,Rainwise IP-100,2013-08-01 22:57:00,
2013-08-01 19:02:00,64.0,63.0,29.95,SW,225,6.0,10.0,96,0.00,,,0.03,Rainwise IP-100,2013-08-01 23:02:00,
2013-08-01 19:07:00,64.0,63.0,29.95,SSW,202,7.0,9.0,97,0.00,,,0.03,Rainwise IP-100,2013-08-01 23:07:00,
2013-08-01 19:12:00,64.0,63.0,29.95,SSW,202,6.0,10.0,96,0.00,,,0.03,Rainwise IP-100,2013-08-01 23:12:00,
2013-08-01 19:17:00,64.0,63.0,29.95,SW,225,6.0,11.0,96,0.00,,,0.03,Rainwise IP-100,2013-08-01 23:17:00,
2013-08-01 19:22:00,64.0,63.0,29.95,SW,225,4.0,9.0,96,0.00,,,0.03,Rainwise IP-100,2013-08-01 23:22:00,
2013-08-01 19:27:00,64.0,63.0,29.95,SSW,202,3.0,9.0,97,0.00,,,0.03,Rainwise IP-100,2013-08-01 23:27:00,
2013-08-01 19:32:00,64.0,62.0,29.95,South,180,10.0,11.0,95,0.00,,,0.03,Rainwise IP-100,2013-08-01 23:32:00,
2013-08-01 19:37:00,64.0,62.0,29.95,WSW,247,5.0,12.0,95,0.00,,,0.03,Rainwise IP-100,2013-08-01 23:37:00,
2013-08-01 19:42:00,65.0,64.0,29.95,WSW,247,8.0,9.0,96,0.00,,,0.03,Rainwise IP-100,2013-08-01 23:42:00,
2013-08-01 19:47:00,64.0,63.0,29.95,South,180,5.0,9.0,96,0.00,,,0.03,Rainwise IP-100,2013-08-01 23:47:00,
2013-08-01 19:52:00,64.0,63.0,29.95,SSW,202,5.0,7.0,96,0.00,,,0.03,Rainwise IP-100,2013-08-01 23:52:00,
2013-08-01 19:57:00,64.0,63.0,29.95,South,180,5.0,7.0,96,0.00,,,0.03,Rainwise IP-100,2013-08-01 23:57:00,
2013-08-01 20:02:00,64.0,63.0,29.95,SW,225,2.0,6.0,96,0.00,,,0.03,Rainwise IP-100,2013-08-02 00:02:00,
2013-08-01 20:07:00,64.0,63.0,29.95,West,270,1.0,5.0,97,0.00,,,0.03,Rainwise IP-100,2013-08-02 00:07:00,
2013-08-01 20:12:00,64.0,63.0,29.96,SSW,202,5.0,6.0,97,0.00,,,0.03,Rainwise IP-100,2013-08-02 00:12:00,
2013-08-01 20:17:00,64.0,63.0,29.96,SE,135,4.0,6.0,97,0.00,,,0.03,Rainwise IP-100,2013-08-02 00:17:00,
2013-08-01 20:22:00,64.0,63.0,29.95,SE,135,8.0,10.0,96,0.00,,,0.03,Rainwise IP-100,2013-08-02 00:22:00,
2013-08-01 20:27:00,64.0,63.0,29.95,SSW,202,7.0,10.0,96,0.00,,,0.03,Rainwise IP-100,2013-08-02 00:27:00,
2013-08-01 20:32:00,64.0,63.0,29.95,SSW,202,7.0,11.0,96,0.00,,,0.03,Rainwise IP-100,2013-08-02 00:32:00,
2013-08-01 20:37:00,64.0,63.0,29.95,SW,225,6.0,10.0,96,0.00,,,0.03,Rainwise IP-100,2013-08-02 00:37:00,
2013-08-01 20:42:00,64.0,63.0,29.94,SW,225,5.0,9.0,96,0.00,,,0.03,Rainwise IP-100,2013-08-02 00:42:00,
2013-08-01 20:47:00,64.0,62.0,29.94,SSW,202,5.0,7.0,95,0.00,,,0.03,Rainwise IP-100,2013-08-02 00:47:00,
2013-08-01 20:52:00,64.0,62.0,29.95,SW,225,4.0,8.0,95,0.00,,,0.03,Rainwise IP-100,2013-08-02 00:52:00,
2013-08-01 20:57:00,64.0,62.0,29.95,WSW,247,7.0,15.0,94,0.00,,,0.03,Rainwise IP-100,2013-08-02 00:57:00,
2013-08-01 21:02:00,64.0,62.0,29.96,South,180,6.0,11.0,95,0.00,,,0.03,Rainwise IP-100,2013-08-02 01:02:00,
2013-08-01 21:07:00,64.0,62.0,29.96,WSW,247,6.0,11.0,95,0.00,,,0.03,Rainwise IP-100,2013-08-02 01:07:00,
2013-08-01 21:12:00,64.0,62.0,29.96,SSW,202,6.0,10.0,95,0.00,,,0.03,Rainwise IP-100,2013-08-02 01:12:00,
2013-08-01 21:17:00,64.0,62.0,29.96,SSW,202,8.0,9.0,95,0.00,,,0.03,Rainwise IP-100,2013-08-02 01:17:00,
2013-08-01 21:22:00,64.0,62.0,29.96,SSW,202,7.0,10.0,95,0.00,,,0.03,Rainwise IP-100,2013-08-02 01:22:00,
2013-08-01 21:27:00,64.0,62.0,29.96,SW,225,9.0,11.0,95,0.00,,,0.03,Rainwise IP-100,2013-08-02 01:27:00,
2013-08-01 21:32:00,64.0,62.0,29.96,SSW,202,8.0,15.0,94,0.00,,,0.03,Rainwise IP-100,2013-08-02 01:32:00,
2013-08-01 21:37:00,64.0,62.0,29.96,WSW,247,6.0,12.0,94,0.00,,,0.03,Rainwise IP-100,2013-08-02 01:37:00,
2013-08-01 21:42:00,64.0,62.0,29.96,SW,225,5.0,13.0,94,0.00,,,0.03,Rainwise IP-100,2013-08-02 01:42:00,
2013-08-01 21:47:00,64.0,62.0,29.96,WSW,247,6.0,10.0,94,0.00,,,0.03,Rainwise IP-100,2013-08-02 01:47:00,
2013-08-01 21:52:00,64.0,62.0,29.96,SW,225,6.0,12.0,93,0.00,,,0.03,Rainwise IP-100,2013-08-02 01:52:00,
2013-08-01 21:57:00,64.0,62.0,29.96,SW,225,8.0,13.0,94,0.00,,,0.03,Rainwise IP-100,2013-08-02 01:57:00,
2013-08-01 22:02:00,64.0,62.0,29.95,SW,225,7.0,13.0,93,0.00,,,0.03,Rainwise IP-100,2013-08-02 02:02:00,
2013-08-01 22:07:00,64.0,62.0,29.95,SSW,202,3.0,12.0,94,0.00,,,0.03,Rainwise IP-100,2013-08-02 02:07:00,
2013-08-01 22:12:00,64.0,62.0,29.95,WSW,247,5.0,12.0,94,0.00,,,0.03,Rainwise IP-100,2013-08-02 02:12:00,
2013-08-01 22:17:00,64.0,62.0,29.95,WSW,247,1.0,10.0,94,0.00,,,0.03,Rainwise IP-100,2013-08-02 02:17:00,
2013-08-01 22:22:00,64.0,62.0,29.95,WSW,247,4.0,6.0,94,0.00,,,0.03,Rainwise IP-100,2013-08-02 02:22:00,
2013-08-01 22:27:00,64.0,62.0,29.95,SW,225,7.0,8.0,94,0.00,,,0.03,Rainwise IP-100,2013-08-02 02:27:00,
2013-08-01 22:32:00,64.0,62.0,29.95,SSW,202,9.0,9.0,94,0.00,,,0.03,Rainwise IP-100,2013-08-02 02:32:00,
2013-08-01 22:37:00,64.0,62.0,29.95,South,180,7.0,9.0,94,0.00,,,0.03,Rainwise IP-100,2013-08-02 02:37:00,
2013-08-01 22:42:00,64.0,62.0,29.95,SSW,202,7.0,10.0,93,0.00,,,0.03,Rainwise IP-100,2013-08-02 02:42:00,
2013-08-01 22:47:00,64.0,62.0,29.95,SW,225,2.0,12.0,93,0.00,,,0.03,Rainwise IP-100,2013-08-02 02:47:00,
2013-08-01 22:52:00,64.0,62.0,29.95,WSW,247,1.0,6.0,94,0.00,,,0.03,Rainwise IP-100,2013-08-02 02:52:00,
2013-08-01 22:57:00,64.0,62.0,29.95,West,270,1.0,7.0,94,0.00,,,0.03,Rainwise IP-100,2013-08-02 02:57:00,
2013-08-01 23:02:00,64.0,62.0,29.95,SW,225,5.0,9.0,94,0.00,,,0.03,Rainwise IP-100,2013-08-02 03:02:00,
2013-08-01 23:07:00,64.0,62.0,29.95,SW,225,6.0,9.0,94,0.00,,,0.03,Rainwise IP-100,2013-08-02 03:07:00,
2013-08-01 23:12:00,64.0,62.0,29.95,SSW,202,5.0,11.0,93,0.00,,,0.03,Rainwise IP-100,2013-08-02 03:12:00,
2013-08-01 23:17:00,64.0,62.0,29.95,WSW,247,2.0,8.0,94,0.00,,,0.03,Rainwise IP-100,2013-08-02 03:17:00,
2013-08-01 23:22:00,64.0,62.0,29.95,SW,225,3.0,7.0,95,0.00,,,0.03,Rainwise IP-100,2013-08-02 03:22:00,
2013-08-01 23:27:00,64.0,62.0,29.95,SW,225,5.0,10.0,95,0.00,,,0.03,Rainwise IP-100,2013-08-02 03:27:00,
2013-08-01 23:32:00,64.0,62.0,29.94,SW,225,6.0,12.0,94,0.00,,,0.03,Rainwise IP-100,2013-08-02 03:32:00,
2013-08-01 23:37:00,64.0,62.0,29.94,SW,225,4.0,10.0,95,0.00,,,0.03,Rainwise IP-100,2013-08-02 03:37:00,
2013-08-01 23:42:00,64.0,62.0,29.94,SSW,202,7.0,9.0,95,0.00,,,0.03,Rainwise IP-100,2013-08-02 03:42:00,
2013-08-01 23:47:00,64.0,62.0,29.94,SSE,157,9.0,12.0,94,0.00,,,0.03,Rainwise IP-100,2013-08-02 03:47:00,
2013-08-01 23:52:00,64.0,62.0,29.94,South,180,9.0,10.0,95,0.00,,,0.03,Rainwise IP-100,2013-08-02 03:52:00,
2013-08-01 23:58:00,64.0,62.0,29.94,SSW,202,4.0,10.0,95,0.00,,,0.03,Rainwise IP-100,2013-08-02 03:58:00,